| time (UTC) | temp F | wind direction | speed MPH | gust MPH | rain 1hr in | rain 24hr in | rain mn in | humidity % | barometer mb |
| 20260906231818 | 62 | 66 | 0.0 | 2.0 | 0.00 | 0.00 | 0.00 | 68 | 1020.4 |
| 20260906231315 | 62 | 66 | 0.0 | 2.0 | 0.00 | 0.00 | 0.00 | 68 | 1020.4 |
| 20260906230828 | 62 | 66 | 0.0 | 0.0 | 0.00 | 0.00 | 0.00 | 70 | 1020.3 |
| 20260906230345 | 62 | 66 | 0.0 | 0.0 | 0.00 | 0.00 | 0.00 | 71 | 1020.3 |
| 20260906225837 | 63 | 66 | 0.0 | 1.0 | 0.00 | 0.00 | 0.00 | 72 | 1020.5 |
| 20260906225314 | 63 | 66 | 0.0 | 1.0 | 0.00 | 0.00 | 0.00 | 71 | 1020.4 |
| 20260906224829 | 63 | 66 | 0.0 | 0.0 | 0.00 | 0.00 | 0.00 | 69 | 1020.5 |
| 20260906224327 | 63 | 66 | 0.0 | 1.0 | 0.00 | 0.00 | 0.00 | 68 | 1020.4 |
| 20260906223823 | 64 | 66 | 0.0 | 1.0 | 0.00 | 0.00 | 0.00 | 65 | 1020.3 |
| 20260906223322 | 64 | 66 | 0.0 | 1.0 | 0.00 | 0.00 | 0.00 | 65 | 1020.3 |
| 20260906222817 | 64 | 66 | 0.0 | 2.0 | 0.00 | 0.00 | 0.00 | 65 | 1020.3 |
| 20260906222314 | 64 | 66 | 0.0 | 2.0 | 0.00 | 0.00 | 0.00 | 65 | 1020.3 |
| 20260906221829 | 64 | 66 | 1.0 | 2.0 | 0.00 | 0.00 | 0.00 | 66 | 1020.4 |
| 20260906221324 | 64 | 66 | 1.0 | 2.0 | 0.00 | 0.00 | 0.00 | 65 | 1020.4 |
| 20260906220817 | 64 | 66 | 1.0 | 1.0 | 0.00 | 0.00 | 0.00 | 65 | 1020.5 |
| 20260906220334 | 64 | 66 | 0.0 | 1.0 | 0.00 | 0.00 | 0.00 | 65 | 1020.6 |
| 20260906215821 | 64 | 66 | 1.0 | 2.0 | 0.00 | 0.00 | 0.00 | 60 | 1020.7 |
| 20260906215318 | 64 | 66 | 1.0 | 2.0 | 0.00 | 0.00 | 0.00 | 61 | 1020.7 |
| 20260906214814 | 65 | 66 | 0.0 | 1.0 | 0.00 | 0.00 | 0.00 | 64 | 1020.7 |
| 20260906214313 | 66 | 66 | 0.0 | 2.0 | 0.00 | 0.00 | 0.00 | 61 | 1020.7 |
| 20260906213849 | 66 | 66 | 1.0 | 2.0 | 0.00 | 0.00 | 0.00 | 59 | 1020.7 |
| 20260906213326 | 65 | 66 | 1.0 | 2.0 | 0.00 | 0.00 | 0.00 | 61 | 1020.7 |
| 20260906212841 | 65 | 66 | 1.0 | 2.0 | 0.00 | 0.00 | 0.00 | 64 | 1020.7 |
| 20260906212338 | 66 | 66 | 0.0 | 2.0 | 0.00 | 0.00 | 0.00 | 63 | 1020.8 |
| 20260906211833 | 67 | 66 | 0.0 | 3.0 | 0.00 | 0.00 | 0.00 | 64 | 1020.8 |
| 20260906211331 | 67 | 66 | 2.0 | 3.0 | 0.00 | 0.00 | 0.00 | 57 | 1020.9 |
| 20260906210827 | 66 | 66 | 1.0 | 2.0 | 0.00 | 0.00 | 0.00 | 61 | 1020.8 |
| 20260906210324 | 66 | 66 | 0.0 | 1.0 | 0.00 | 0.00 | 0.00 | 61 | 1020.9 |
| 20260906205819 | 66 | 66 | 0.0 | 1.0 | 0.00 | 0.00 | 0.00 | 63 | 1021.0 |
| 20260906205318 | 67 | 66 | 0.0 | 1.0 | 0.00 | 0.00 | 0.00 | 63 | 1021.0 |
| 20260906204831 | 67 | 66 | 1.0 | 1.0 | 0.00 | 0.00 | 0.00 | 60 | 1021.0 |
| 20260906204350 | 68 | 66 | 0.0 | 1.0 | 0.00 | 0.00 | 0.00 | 59 | 1021.0 |
| 20260906203823 | 68 | 66 | 0.0 | 2.0 | 0.00 | 0.00 | 0.00 | 60 | 1021.0 |
| 20260906203324 | 68 | 66 | 1.0 | 2.0 | 0.00 | 0.00 | 0.00 | 59 | 1021.0 |
| 20260906202821 | 69 | 66 | 0.0 | 2.0 | 0.00 | 0.00 | 0.00 | 56 | 1021.1 |
| 20260906202319 | 69 | 66 | 1.0 | 2.0 | 0.00 | 0.00 | 0.00 | 55 | 1021.0 |
| 20260906201814 | 69 | 66 | 0.0 | 5.0 | 0.00 | 0.00 | 0.00 | 56 | 1021.1 |
| 20260906201332 | 70 | 66 | 2.0 | 5.0 | 0.00 | 0.00 | 0.00 | 54 | 1021.2 |
| 20260906200827 | 69 | 30 | 2.0 | 4.0 | 0.00 | 0.00 | 0.00 | 54 | 1021.3 |
| 20260906200343 | 70 | 81 | 1.0 | 2.0 | 0.00 | 0.00 | 0.00 | 55 | 1021.3 |
| 20260906195817 | 70 | 81 | 1.0 | 2.0 | 0.00 | 0.00 | 0.00 | 49 | 1021.3 |
| 20260906195314 | 70 | 81 | 1.0 | 2.0 | 0.00 | 0.00 | 0.00 | 49 | 1021.2 |
| 20260906194831 | 71 | 82 | 1.0 | 4.0 | 0.00 | 0.00 | 0.00 | 48 | 1021.3 |
| 20260906194349 | 73 | 81 | 2.0 | 4.0 | 0.00 | 0.00 | 0.00 | 47 | 1021.4 |
| 20260906193817 | 74 | 298 | 2.0 | 3.0 | 0.00 | 0.00 | 0.00 | 39 | 1021.6 |
| 20260906193335 | 75 | 49 | 1.0 | 6.0 | 0.00 | 0.00 | 0.00 | 37 | 1021.2 |
| 20260906192829 | 74 | 57 | 4.0 | 7.0 | 0.00 | 0.00 | 0.00 | 37 | 1021.0 |
| 20260906192326 | 74 | 60 | 4.0 | 9.0 | 0.00 | 0.00 | 0.00 | 39 | 1020.9 |
| 20260906191842 | 74 | 60 | 4.0 | 9.0 | 0.00 | 0.00 | 0.00 | 38 | 1020.7 |
| 20260906191339 | 74 | 22 | 3.0 | 6.0 | 0.00 | 0.00 | 0.00 | 39 | 1020.8 |
| 20260906190854 | 74 | 57 | 3.0 | 9.0 | 0.00 | 0.00 | 0.00 | 39 | 1020.6 |
| 20260906190332 | 74 | 40 | 6.0 | 9.0 | 0.00 | 0.00 | 0.00 | 40 | 1020.6 |
| 20260906185827 | 73 | 40 | 4.0 | 6.0 | 0.00 | 0.00 | 0.00 | 42 | 1020.7 |
| 20260906185326 | 74 | 70 | 3.0 | 5.0 | 0.00 | 0.00 | 0.00 | 41 | 1020.7 |
| 20260906184822 | 74 | 85 | 4.0 | 6.0 | 0.00 | 0.00 | 0.00 | 41 | 1020.8 |
| 20260906184320 | 73 | 82 | 3.0 | 5.0 | 0.00 | 0.00 | 0.00 | 45 | 1020.7 |
| 20260906183814 | 73 | 80 | 4.0 | 9.0 | 0.00 | 0.00 | 0.00 | 44 | 1020.7 |
| 20260906183328 | 73 | 84 | 5.0 | 9.0 | 0.00 | 0.00 | 0.00 | 47 | 1020.8 |
| 20260906182822 | 73 | 95 | 4.0 | 10.0 | 0.00 | 0.00 | 0.00 | 46 | 1020.8 |
| 20260906182320 | 72 | 40 | 4.0 | 10.0 | 0.00 | 0.00 | 0.00 | 47 | 1020.8 |
| 20260906181814 | 70 | 92 | 5.0 | 8.0 | 0.00 | 0.00 | 0.00 | 57 | 1020.6 |
| 20260906181333 | 71 | 72 | 4.0 | 8.0 | 0.00 | 0.00 | 0.00 | 58 | 1020.6 |
| 20260906180850 | 71 | 95 | 2.0 | 5.0 | 0.00 | 0.00 | 0.00 | 55 | 1021.1 |
| 20260906180327 | 70 | 67 | 3.0 | 4.0 | 0.00 | 0.00 | 0.00 | 61 | 1020.8 |
| 20260906175822 | 70 | 63 | 3.0 | 4.0 | 0.00 | 0.00 | 0.00 | 62 | 1021.0 |
| 20260906175318 | 71 | 63 | 0.0 | 3.0 | 0.00 | 0.00 | 0.00 | 58 | 1021.3 |
| 20260906174833 | 72 | 63 | 1.0 | 4.0 | 0.00 | 0.00 | 0.00 | 51 | 1021.3 |
| 20260906174330 | 72 | 63 | 2.0 | 4.0 | 0.00 | 0.00 | 0.00 | 49 | 1021.3 |
| 20260906173826 | 72 | 63 | 2.0 | 4.0 | 0.00 | 0.00 | 0.00 | 53 | 1021.2 |
| 20260906173346 | 73 | 63 | 3.0 | 4.0 | 0.00 | 0.00 | 0.00 | 58 | 1021.3 |
| 20260906172815 | 73 | 63 | 1.0 | 4.0 | 0.00 | 0.00 | 0.00 | 57 | 1021.4 |
| 20260906172332 | 73 | 63 | 2.0 | 4.0 | 0.00 | 0.00 | 0.00 | 53 | 1021.5 |
| 20260906171829 | 73 | 63 | 4.0 | 4.0 | 0.00 | 0.00 | 0.00 | 58 | 1021.4 |
| 20260906171326 | 74 | 105 | 2.0 | 4.0 | 0.00 | 0.00 | 0.00 | 59 | 1021.6 |
| 20260906170840 | 74 | 105 | 3.0 | 4.0 | 0.00 | 0.00 | 0.00 | 56 | 1021.7 |
| 20260906170337 | 74 | 105 | 1.0 | 2.0 | 0.00 | 0.00 | 0.00 | 56 | 1021.8 |
| 20260906165853 | 75 | 105 | 1.0 | 2.0 | 0.00 | 0.00 | 0.00 | 57 | 1021.9 |
| 20260906165329 | 75 | 105 | 0.0 | 2.0 | 0.00 | 0.00 | 0.00 | 53 | 1022.0 |
| 20260906164824 | 76 | 105 | 1.0 | 2.0 | 0.00 | 0.00 | 0.00 | 51 | 1022.0 |
| 20260906164322 | 76 | 105 | 1.0 | 2.0 | 0.00 | 0.00 | 0.00 | 48 | 1021.9 |
| 20260906163818 | 76 | 105 | 0.0 | 2.0 | 0.00 | 0.00 | 0.00 | 47 | 1022.1 |
| 20260906163317 | 76 | 105 | 0.0 | 2.0 | 0.00 | 0.00 | 0.00 | 47 | 1022.0 |
| 20260906162833 | 77 | 105 | 1.0 | 3.0 | 0.00 | 0.00 | 0.00 | 41 | 1022.0 |
| 20260906162330 | 77 | 105 | 1.0 | 4.0 | 0.00 | 0.00 | 0.00 | 37 | 1021.9 |
| 20260906161843 | 78 | 105 | 2.0 | 4.0 | 0.00 | 0.00 | 0.00 | 42 | 1021.8 |
| 20260906161321 | 78 | 92 | 2.0 | 4.0 | 0.00 | 0.00 | 0.00 | 40 | 1021.8 |
| 20260906160817 | 78 | 78 | 2.0 | 3.0 | 0.00 | 0.00 | 0.00 | 39 | 1021.9 |
| 20260906160316 | 79 | 91 | 2.0 | 9.0 | 0.00 | 0.00 | 0.00 | 34 | 1021.9 |
| 20260906155831 | 79 | 132 | 3.0 | 9.0 | 0.00 | 0.00 | 0.00 | 34 | 1021.9 |
| 20260906155329 | 79 | 96 | 3.0 | 6.0 | 0.00 | 0.00 | 0.00 | 35 | 1021.9 |
| 20260906154842 | 80 | 105 | 3.0 | 6.0 | 0.00 | 0.00 | 0.00 | 32 | 1022.0 |
| 20260906154339 | 80 | 181 | 2.0 | 7.0 | 0.00 | 0.00 | 0.00 | 32 | 1022.0 |
| 20260906153832 | 79 | 126 | 2.0 | 8.0 | 0.00 | 0.00 | 0.00 | 32 | 1021.9 |
| 20260906153331 | 80 | 155 | 4.0 | 8.0 | 0.00 | 0.00 | 0.00 | 33 | 1021.9 |
| 20260906152824 | 80 | 103 | 3.0 | 6.0 | 0.00 | 0.00 | 0.00 | 35 | 1022.0 |
| 20260906152340 | 80 | 129 | 3.0 | 8.0 | 0.00 | 0.00 | 0.00 | 33 | 1022.1 |
| 20260906151834 | 80 | 119 | 3.0 | 8.0 | 0.00 | 0.00 | 0.00 | 34 | 1022.2 |
| 20260906151330 | 79 | 108 | 4.0 | 9.0 | 0.00 | 0.00 | 0.00 | 34 | 1022.2 |
| 20260906150824 | 80 | 81 | 5.0 | 9.0 | 0.00 | 0.00 | 0.00 | 34 | 1022.3 |
| 20260906150323 | 79 | 145 | 4.0 | 9.0 | 0.00 | 0.00 | 0.00 | 32 | 1022.3 |
| 20260906145818 | 80 | 148 | 5.0 | 9.0 | 0.00 | 0.00 | 0.00 | 31 | 1022.4 |
| 20260906145336 | 80 | 180 | 4.0 | 9.0 | 0.00 | 0.00 | 0.00 | 31 | 1022.4 |
| 20260906144829 | 80 | 163 | 4.0 | 9.0 | 0.00 | 0.00 | 0.00 | 31 | 1022.5 |
| 20260906144326 | 80 | 63 | 5.0 | 9.0 | 0.00 | 0.00 | 0.00 | 32 | 1022.5 |
| 20260906143841 | 80 | 155 | 3.0 | 10.0 | 0.00 | 0.00 | 0.00 | 32 | 1022.5 |
| 20260906143338 | 80 | 119 | 4.0 | 10.0 | 0.00 | 0.00 | 0.00 | 32 | 1022.7 |
| 20260906142833 | 80 | 165 | 4.0 | 8.0 | 0.00 | 0.00 | 0.00 | 35 | 1022.7 |
| 20260906142331 | 80 | 160 | 5.0 | 12.0 | 0.00 | 0.00 | 0.00 | 34 | 1022.6 |
| 20260906141842 | 80 | 87 | 5.0 | 12.0 | 0.00 | 0.00 | 0.00 | 35 | 1022.5 |
| 20260906141318 | 80 | 123 | 5.0 | 10.0 | 0.00 | 0.00 | 0.00 | 33 | 1022.5 |
| 20260906140833 | 81 | 74 | 6.0 | 11.0 | 0.00 | 0.00 | 0.00 | 32 | 1022.7 |
| 20260906140332 | 81 | 98 | 7.0 | 12.0 | 0.00 | 0.00 | 0.00 | 33 | 1022.8 |
| 20260906135825 | 79 | 131 | 9.0 | 12.0 | 0.00 | 0.00 | 0.00 | 32 | 1022.8 |
| 20260906135322 | 80 | 190 | 5.0 | 9.0 | 0.00 | 0.00 | 0.00 | 32 | 1022.7 |
| 20260906134817 | 79 | 133 | 6.0 | 12.0 | 0.00 | 0.00 | 0.00 | 35 | 1022.8 |
| 20260906134313 | 80 | 141 | 6.0 | 11.0 | 0.00 | 0.00 | 0.00 | 31 | 1022.9 |
| 20260906133826 | 80 | 67 | 6.0 | 11.0 | 0.00 | 0.00 | 0.00 | 35 | 1022.9 |
| 20260906133347 | 80 | 150 | 6.0 | 11.0 | 0.00 | 0.00 | 0.00 | 31 | 1022.9 |
| 20260906132821 | 81 | 80 | 5.0 | 8.0 | 0.00 | 0.00 | 0.00 | 33 | 1022.9 |
| 20260906132318 | 80 | 164 | 4.0 | 11.0 | 0.00 | 0.00 | 0.00 | 31 | 1022.9 |
| 20260906131815 | 80 | 111 | 4.0 | 11.0 | 0.00 | 0.00 | 0.00 | 33 | 1022.9 |
| 20260906131329 | 80 | 85 | 5.0 | 13.0 | 0.00 | 0.00 | 0.00 | 34 | 1022.9 |
| 20260906130823 | 80 | 76 | 7.0 | 12.0 | 0.00 | 0.00 | 0.00 | 35 | 1023.0 |
| 20260906130321 | 79 | 188 | 2.0 | 9.0 | 0.00 | 0.00 | 0.00 | 32 | 1023.1 |
| 20260906125837 | 79 | 124 | 7.0 | 9.0 | 0.00 | 0.00 | 0.00 | 31 | 1023.1 |
| 20260906125313 | 79 | 101 | 5.0 | 10.0 | 0.00 | 0.00 | 0.00 | 32 | 1023.1 |
| 20260906124829 | 79 | 108 | 4.0 | 10.0 | 0.00 | 0.00 | 0.00 | 33 | 1023.2 |
| 20260906124326 | 79 | 157 | 5.0 | 9.0 | 0.00 | 0.00 | 0.00 | 32 | 1023.3 |
| 20260906123822 | 79 | 114 | 5.0 | 10.0 | 0.00 | 0.00 | 0.00 | 30 | 1023.3 |
| 20260906123320 | 79 | 101 | 5.0 | 10.0 | 0.00 | 0.00 | 0.00 | 32 | 1023.3 |
| 20260906122816 | 78 | 77 | 6.0 | 9.0 | 0.00 | 0.00 | 0.00 | 34 | 1023.3 |
| 20260906122315 | 78 | 144 | 3.0 | 11.0 | 0.00 | 0.00 | 0.00 | 32 | 1023.3 |
| 20260906121830 | 79 | 145 | 8.0 | 11.0 | 0.00 | 0.00 | 0.00 | 31 | 1023.4 |
| 20260906121326 | 78 | 109 | 7.0 | 13.0 | 0.00 | 0.00 | 0.00 | 32 | 1023.4 |
| 20260906120820 | 78 | 126 | 7.0 | 13.0 | 0.00 | 0.00 | 0.00 | 35 | 1023.6 |
| 20260906120318 | 78 | 164 | 6.0 | 13.0 | 0.00 | 0.00 | 0.00 | 35 | 1023.6 |
| 20260906115814 | 78 | 149 | 7.0 | 13.0 | 0.00 | 0.00 | 0.00 | 35 | 1023.7 |
| 20260906115314 | 77 | 115 | 7.0 | 9.0 | 0.00 | 0.00 | 0.00 | 36 | 1023.8 |
| 20260906114830 | 78 | 144 | 6.0 | 9.0 | 0.00 | 0.00 | 0.00 | 36 | 1023.9 |
| 20260906114328 | 78 | 120 | 3.0 | 11.0 | 0.00 | 0.00 | 0.00 | 35 | 1024.0 |
| 20260906113822 | 78 | 91 | 7.0 | 11.0 | 0.00 | 0.00 | 0.00 | 36 | 1024.1 |
| 20260906113321 | 78 | 83 | 5.0 | 10.0 | 0.00 | 0.00 | 0.00 | 37 | 1024.0 |
| 20260906112816 | 77 | 92 | 6.0 | 10.0 | 0.00 | 0.00 | 0.00 | 37 | 1024.0 |
| 20260906112328 | 77 | 126 | 6.0 | 13.0 | 0.00 | 0.00 | 0.00 | 37 | 1024.0 |
| 20260906111824 | 77 | 146 | 8.0 | 13.0 | 0.00 | 0.00 | 0.00 | 38 | 1024.1 |
| 20260906111322 | 77 | 156 | 3.0 | 12.0 | 0.00 | 0.00 | 0.00 | 41 | 1024.0 |
| 20260906110817 | 76 | 93 | 6.0 | 9.0 | 0.00 | 0.00 | 0.00 | 43 | 1024.1 |
| 20260906110315 | 76 | 174 | 3.0 | 12.0 | 0.00 | 0.00 | 0.00 | 43 | 1024.1 |
| 20260906105830 | 75 | 107 | 6.0 | 12.0 | 0.00 | 0.00 | 0.00 | 45 | 1024.2 |
| 20260906105324 | 75 | 171 | 8.0 | 10.0 | 0.00 | 0.00 | 0.00 | 45 | 1024.3 |
| 20260906104819 | 75 | 152 | 4.0 | 9.0 | 0.00 | 0.00 | 0.00 | 45 | 1024.3 |
| 20260906104335 | 75 | 71 | 5.0 | 8.0 | 0.00 | 0.00 | 0.00 | 48 | 1024.3 |
| 20260906103851 | 74 | 109 | 3.0 | 10.0 | 0.00 | 0.00 | 0.00 | 47 | 1024.4 |
| 20260906103326 | 74 | 111 | 4.0 | 10.0 | 0.00 | 0.00 | 0.00 | 47 | 1024.5 |
| 20260906102821 | 73 | 116 | 4.0 | 11.0 | 0.00 | 0.00 | 0.00 | 50 | 1024.4 |
| 20260906102317 | 73 | 128 | 7.0 | 11.0 | 0.00 | 0.00 | 0.00 | 49 | 1024.5 |
| 20260906101832 | 72 | 175 | 4.0 | 10.0 | 0.00 | 0.00 | 0.00 | 50 | 1024.6 |
| 20260906101330 | 72 | 163 | 7.0 | 10.0 | 0.00 | 0.00 | 0.00 | 49 | 1024.7 |
| 20260906100824 | 72 | 59 | 4.0 | 11.0 | 0.00 | 0.00 | 0.00 | 54 | 1024.8 |
| 20260906100321 | 72 | 150 | 8.0 | 11.0 | 0.00 | 0.00 | 0.00 | 51 | 1024.8 |
| 20260906095837 | 71 | 143 | 7.0 | 11.0 | 0.00 | 0.00 | 0.00 | 51 | 1025.0 |
| 20260906095333 | 71 | 78 | 5.0 | 10.0 | 0.00 | 0.00 | 0.00 | 51 | 1025.1 |
| 20260906094826 | 72 | 166 | 7.0 | 10.0 | 0.00 | 0.00 | 0.00 | 52 | 1025.1 |
| 20260906094322 | 71 | 142 | 5.0 | 8.0 | 0.00 | 0.00 | 0.00 | 53 | 1025.3 |
| 20260906093935 | 71 | 107 | 4.0 | 10.0 | 0.00 | 0.00 | 0.00 | 53 | 1025.3 |
| 20260906093317 | 70 | 78 | 4.0 | 8.0 | 0.00 | 0.00 | 0.00 | 53 | 1025.3 |
| 20260906092833 | 70 | 142 | 4.0 | 8.0 | 0.00 | 0.00 | 0.00 | 55 | 1025.3 |
| 20260906092352 | 70 | 119 | 6.0 | 11.0 | 0.00 | 0.00 | 0.00 | 55 | 1025.3 |
| 20260906091826 | 70 | 127 | 5.0 | 11.0 | 0.00 | 0.00 | 0.00 | 57 | 1025.4 |
| 20260906091323 | 69 | 64 | 4.0 | 6.0 | 0.00 | 0.00 | 0.00 | 56 | 1025.5 |
| 20260906090818 | 69 | 156 | 3.0 | 5.0 | 0.00 | 0.00 | 0.00 | 58 | 1025.5 |
| 20260906090315 | 68 | 109 | 3.0 | 9.0 | 0.00 | 0.00 | 0.00 | 58 | 1025.5 |
| 20260906085830 | 68 | 102 | 5.0 | 9.0 | 0.00 | 0.00 | 0.00 | 58 | 1025.6 |
| 20260906085326 | 68 | 162 | 3.0 | 9.0 | 0.00 | 0.00 | 0.00 | 59 | 1025.6 |
| 20260906084821 | 66 | 140 | 6.0 | 9.0 | 0.00 | 0.00 | 0.00 | 60 | 1025.6 |
| 20260906084317 | 66 | 163 | 4.0 | 10.0 | 0.00 | 0.00 | 0.00 | 60 | 1025.7 |
| 20260906083829 | 67 | 128 | 8.0 | 10.0 | 0.00 | 0.00 | 0.00 | 59 | 1025.8 |
| 20260906083327 | 66 | 103 | 7.0 | 10.0 | 0.00 | 0.00 | 0.00 | 61 | 1025.9 |
| 20260906082821 | 66 | 128 | 4.0 | 11.0 | 0.00 | 0.00 | 0.00 | 62 | 1025.9 |
| 20260906082317 | 65 | 169 | 7.0 | 11.0 | 0.00 | 0.00 | 0.00 | 62 | 1025.9 |
| 20260906081833 | 66 | 135 | 5.0 | 10.0 | 0.00 | 0.00 | 0.00 | 62 | 1025.9 |
| 20260906081330 | 65 | 128 | 4.0 | 9.0 | 0.00 | 0.00 | 0.00 | 62 | 1025.8 |
| 20260906080824 | 65 | 134 | 5.0 | 9.0 | 0.00 | 0.00 | 0.00 | 62 | 1025.8 |
| 20260906080342 | 66 | 114 | 6.0 | 9.0 | 0.00 | 0.00 | 0.00 | 62 | 1025.9 |
| 20260906075836 | 65 | 60 | 5.0 | 9.0 | 0.00 | 0.00 | 0.00 | 64 | 1025.9 |
| 20260906075332 | 65 | 92 | 5.0 | 9.0 | 0.00 | 0.00 | 0.00 | 65 | 1026.0 |
| 20260906074821 | 64 | 103 | 3.0 | 9.0 | 0.00 | 0.00 | 0.00 | 66 | 1025.9 |
| 20260906074320 | 63 | 78 | 4.0 | 10.0 | 0.00 | 0.00 | 0.00 | 68 | 1026.0 |
| 20260906073833 | 63 | 49 | 3.0 | 10.0 | 0.00 | 0.00 | 0.00 | 68 | 1025.9 |
| 20260906073331 | 63 | 84 | 4.0 | 8.0 | 0.00 | 0.00 | 0.00 | 69 | 1025.9 |
| 20260906072825 | 62 | 70 | 3.0 | 7.0 | 0.00 | 0.00 | 0.00 | 71 | 1025.9 |
| 20260906072322 | 62 | 85 | 5.0 | 7.0 | 0.00 | 0.00 | 0.00 | 71 | 1026.0 |
| 20260906071836 | 62 | 77 | 3.0 | 6.0 | 0.00 | 0.00 | 0.00 | 72 | 1026.1 |
| 20260906071353 | 61 | 76 | 3.0 | 6.0 | 0.00 | 0.00 | 0.00 | 74 | 1026.2 |
| 20260906070823 | 60 | 67 | 3.0 | 5.0 | 0.00 | 0.00 | 0.00 | 75 | 1026.2 |
| 20260906070320 | 60 | 83 | 2.0 | 7.0 | 0.00 | 0.00 | 0.00 | 77 | 1026.1 |
| 20260906065833 | 59 | 82 | 4.0 | 10.0 | 0.00 | 0.00 | 0.00 | 77 | 1026.1 |
| 20260906065350 | 58 | 82 | 6.0 | 10.0 | 0.00 | 0.00 | 0.00 | 80 | 1026.1 |
| 20260906064824 | 57 | 69 | 3.0 | 4.0 | 0.00 | 0.00 | 0.00 | 82 | 1026.1 |
| 20260906064321 | 56 | 81 | 2.0 | 6.0 | 0.00 | 0.00 | 0.00 | 83 | 1026.0 |
| 20260906063816 | 56 | 81 | 2.0 | 6.0 | 0.00 | 0.00 | 0.00 | 83 | 1026.0 |
| 20260906063400 | 55 | 94 | 3.0 | 4.0 | 0.00 | 0.00 | 0.00 | 84 | 1025.9 |
| 20260906062850 | 55 | 101 | 2.0 | 4.0 | 0.00 | 0.00 | 0.00 | 84 | 1025.9 |
| 20260906062326 | 54 | 98 | 2.0 | 4.0 | 0.00 | 0.00 | 0.00 | 87 | 1025.9 |
| 20260906061820 | 52 | 78 | 3.0 | 5.0 | 0.00 | 0.00 | 0.00 | 89 | 1025.9 |
| 20260906061318 | 52 | 74 | 3.0 | 5.0 | 0.00 | 0.00 | 0.00 | 90 | 1025.9 |
| 20260906060833 | 50 | 74 | 3.0 | 6.0 | 0.00 | 0.00 | 0.00 | 90 | 1025.8 |
| 20260906060331 | 50 | 76 | 3.0 | 6.0 | 0.00 | 0.00 | 0.00 | 89 | 1025.8 |
| 20260906055826 | 50 | 59 | 2.0 | 4.0 | 0.00 | 0.00 | 0.00 | 90 | 1025.9 |
| 20260906055323 | 49 | 64 | 1.0 | 2.0 | 0.00 | 0.00 | 0.00 | 89 | 1025.9 |
| 20260906054838 | 50 | 64 | 1.0 | 3.0 | 0.00 | 0.00 | 0.00 | 89 | 1025.9 |
| 20260906054316 | 50 | 65 | 2.0 | 4.0 | 0.00 | 0.00 | 0.00 | 89 | 1025.8 |
| 20260906053832 | 51 | 64 | 3.0 | 4.0 | 0.00 | 0.00 | 0.00 | 90 | 1025.8 |
| 20260906053351 | 51 | 63 | 3.0 | 4.0 | 0.00 | 0.00 | 0.00 | 90 | 1025.8 |
| 20260906052825 | 50 | 59 | 2.0 | 4.0 | 0.00 | 0.00 | 0.00 | 91 | 1025.8 |
| 20260906052323 | 49 | 69 | 3.0 | 4.0 | 0.00 | 0.00 | 0.00 | 91 | 1025.7 |
| 20260906051818 | 49 | 71 | 2.0 | 3.0 | 0.00 | 0.00 | 0.00 | 91 | 1025.8 |
| 20260906051336 | 49 | 71 | 2.0 | 4.0 | 0.00 | 0.00 | 0.00 | 91 | 1025.8 |
| 20260906050853 | 49 | 71 | 2.0 | 4.0 | 0.00 | 0.00 | 0.00 | 91 | 1025.9 |
| 20260906050331 | 48 | 71 | 3.0 | 5.0 | 0.00 | 0.00 | 0.00 | 91 | 1025.9 |
| 20260906045826 | 48 | 61 | 3.0 | 4.0 | 0.00 | 0.00 | 0.00 | 91 | 1025.9 |
| 20260906045325 | 48 | 61 | 3.0 | 4.0 | 0.00 | 0.00 | 0.00 | 91 | 1025.9 |
| 20260906044820 | 48 | 54 | 2.0 | 4.0 | 0.00 | 0.00 | 0.00 | 91 | 1025.9 |
| 20260906044318 | 48 | 36 | 2.0 | 5.0 | 0.00 | 0.00 | 0.00 | 90 | 1026.0 |
| 20260906043832 | 49 | 63 | 2.0 | 5.0 | 0.00 | 0.00 | 0.00 | 91 | 1026.0 |
| 20260906043330 | 48 | 78 | 4.0 | 5.0 | 0.00 | 0.00 | 0.00 | 91 | 1026.0 |
| 20260906042846 | 48 | 43 | 2.0 | 3.0 | 0.00 | 0.00 | 0.00 | 91 | 1026.0 |
| 20260906042324 | 48 | 43 | 0.0 | 2.0 | 0.00 | 0.00 | 0.00 | 90 | 1026.0 |
| 20260906041819 | 49 | 43 | 1.0 | 2.0 | 0.00 | 0.00 | 0.00 | 91 | 1026.1 |
| 20260906041318 | 49 | 43 | 0.0 | 2.0 | 0.00 | 0.00 | 0.00 | 90 | 1026.0 |
| 20260906040825 | 49 | 43 | 0.0 | 1.0 | 0.00 | 0.00 | 0.00 | 90 | 1026.2 |
| 20260906040322 | 48 | 43 | 0.0 | 1.0 | 0.00 | 0.00 | 0.00 | 90 | 1026.2 |
| 20260906035836 | 48 | 43 | 0.0 | 1.0 | 0.00 | 0.00 | 0.00 | 91 | 1026.2 |
| 20260906035314 | 48 | 43 | 0.0 | 3.0 | 0.00 | 0.00 | 0.00 | 90 | 1026.2 |
| 20260906034853 | 48 | 43 | 1.0 | 4.0 | 0.00 | 0.00 | 0.00 | 90 | 1026.3 |
| 20260906034350 | 49 | 38 | 3.0 | 4.0 | 0.00 | 0.00 | 0.00 | 90 | 1026.2 |
| 20260906033843 | 49 | 54 | 2.0 | 3.0 | 0.00 | 0.00 | 0.00 | 90 | 1026.2 |
| 20260906033320 | 49 | 54 | 1.0 | 5.0 | 0.00 | 0.00 | 0.00 | 90 | 1026.2 |
| 20260906032836 | 50 | 54 | 3.0 | 5.0 | 0.00 | 0.00 | 0.00 | 91 | 1026.2 |
| 20260906032354 | 49 | 55 | 4.0 | 5.0 | 0.00 | 0.00 | 0.00 | 91 | 1026.3 |
| 20260906031848 | 48 | 47 | 3.0 | 5.0 | 0.00 | 0.00 | 0.00 | 91 | 1026.2 |
| 20260906031324 | 48 | 31 | 0.0 | 1.0 | 0.00 | 0.00 | 0.00 | 91 | 1026.4 |
| 20260906030818 | 48 | 31 | 0.0 | 0.0 | 0.00 | 0.00 | 0.00 | 91 | 1026.5 |
| 20260906030315 | 48 | 31 | 0.0 | 0.0 | 0.00 | 0.00 | 0.00 | 90 | 1026.6 |
| 20260906025831 | 48 | 31 | 0.0 | 1.0 | 0.00 | 0.00 | 0.00 | 91 | 1026.6 |
| 20260906025330 | 48 | 31 | 1.0 | 1.0 | 0.00 | 0.00 | 0.00 | 91 | 1026.6 |
| 20260906024845 | 48 | 31 | 0.0 | 1.0 | 0.00 | 0.00 | 0.00 | 90 | 1026.5 |
| 20260906024322 | 48 | 31 | 0.0 | 0.0 | 0.00 | 0.00 | 0.00 | 90 | 1026.6 |
| 20260906023838 | 48 | 31 | 0.0 | 1.0 | 0.00 | 0.00 | 0.00 | 90 | 1026.7 |
| 20260906023315 | 48 | 31 | 0.0 | 2.0 | 0.00 | 0.00 | 0.00 | 90 | 1026.6 |
| 20260906022830 | 48 | 31 | 0.0 | 2.0 | 0.00 | 0.00 | 0.00 | 90 | 1026.6 |
| 20260906022329 | 48 | 31 | 2.0 | 2.0 | 0.00 | 0.00 | 0.00 | 90 | 1026.6 |
| 20260906021824 | 49 | 31 | 2.0 | 2.0 | 0.00 | 0.00 | 0.00 | 90 | 1026.6 |
| 20260906021323 | 49 | 31 | 1.0 | 3.0 | 0.00 | 0.00 | 0.00 | 90 | 1026.6 |
| 20260906020819 | 49 | 31 | 2.0 | 4.0 | 0.00 | 0.00 | 0.00 | 90 | 1026.6 |
| 20260906020338 | 49 | 31 | 3.0 | 3.0 | 0.00 | 0.00 | 0.00 | 90 | 1026.6 |
| 20260906015851 | 48 | 31 | 2.0 | 2.0 | 0.00 | 0.00 | 0.00 | 90 | 1026.7 |
| 20260906015347 | 49 | 31 | 1.0 | 2.0 | 0.00 | 0.00 | 0.00 | 89 | 1026.7 |
| 20260906014822 | 49 | 31 | 1.0 | 2.0 | 0.00 | 0.00 | 0.00 | 89 | 1026.7 |
| 20260906014320 | 49 | 31 | 1.0 | 4.0 | 0.00 | 0.00 | 0.00 | 89 | 1026.6 |
| 20260906013816 | 49 | 31 | 2.0 | 4.0 | 0.00 | 0.00 | 0.00 | 90 | 1026.6 |
| 20260906013335 | 49 | 31 | 3.0 | 5.0 | 0.00 | 0.00 | 0.00 | 89 | 1026.6 |
| 20260906012851 | 49 | 30 | 4.0 | 5.0 | 0.00 | 0.00 | 0.00 | 89 | 1026.7 |
| 20260906012327 | 49 | 12 | 2.0 | 3.0 | 0.00 | 0.00 | 0.00 | 89 | 1026.8 |
| 20260906011824 | 48 | 336 | 0.0 | 2.0 | 0.00 | 0.00 | 0.00 | 89 | 1026.8 |
| 20260906011322 | 48 | 336 | 1.0 | 2.0 | 0.00 | 0.00 | 0.00 | 89 | 1027.0 |
| 20260906010833 | 48 | 336 | 0.0 | 1.0 | 0.00 | 0.00 | 0.00 | 89 | 1027.1 |
| 20260906010331 | 49 | 336 | 0.0 | 1.0 | 0.00 | 0.00 | 0.00 | 88 | 1027.1 |
| 20260906005825 | 49 | 336 | 0.0 | 1.0 | 0.00 | 0.00 | 0.00 | 88 | 1027.1 |
| 20260906005323 | 49 | 336 | 0.0 | 1.0 | 0.00 | 0.00 | 0.00 | 88 | 1027.1 |
| 20260906004817 | 49 | 336 | 0.0 | 2.0 | 0.00 | 0.00 | 0.00 | 87 | 1027.1 |
| 20260906004314 | 49 | 336 | 1.0 | 2.0 | 0.00 | 0.00 | 0.00 | 87 | 1027.1 |
| 20260906003827 | 50 | 334 | 1.0 | 2.0 | 0.00 | 0.00 | 0.00 | 87 | 1027.1 |
| 20260906003324 | 50 | 334 | 1.0 | 2.0 | 0.00 | 0.00 | 0.00 | 88 | 1027.1 |
| 20260906002819 | 49 | 334 | 1.0 | 3.0 | 0.00 | 0.00 | 0.00 | 88 | 1027.0 |
| 20260906002315 | 49 | 327 | 2.0 | 2.0 | 0.00 | 0.00 | 0.00 | 87 | 1027.1 |
| 20260906001829 | 50 | 320 | 1.0 | 4.0 | 0.00 | 0.00 | 0.00 | 86 | 1027.2 |
| 20260906001326 | 51 | 325 | 3.0 | 4.0 | 0.00 | 0.00 | 0.00 | 88 | 1027.1 |
| 20260906000819 | 50 | 9 | 3.0 | 4.0 | 0.00 | 0.00 | 0.00 | 88 | 1027.0 |
| 20260906000318 | 50 | 9 | 3.0 | 5.0 | 0.00 | 0.00 | 0.00 | 87 | 1027.0 |
| 20260905235832 | 50 | 355 | 4.0 | 5.0 | 0.00 | 0.00 | 0.00 | 87 | 1027.1 |
| 20260905235328 | 50 | 336 | 1.0 | 3.0 | 0.00 | 0.00 | 0.00 | 86 | 1027.1 |
| 20260905234822 | 51 | 348 | 2.0 | 4.0 | 0.00 | 0.00 | 0.00 | 86 | 1027.1 |
| 20260905234319 | 51 | 346 | 3.0 | 4.0 | 0.00 | 0.00 | 0.00 | 86 | 1027.0 |
| 20260905233814 | 51 | 39 | 2.0 | 3.0 | 0.00 | 0.00 | 0.00 | 87 | 1026.9 |
| 20260905233314 | 50 | 39 | 2.0 | 3.0 | 0.00 | 0.00 | 0.00 | 87 | 1026.9 |
| 20260905232831 | 50 | 39 | 1.0 | 3.0 | 0.00 | 0.00 | 0.00 | 87 | 1026.9 |
| 20260905232326 | 50 | 39 | 2.0 | 3.0 | 0.00 | 0.00 | 0.00 | 87 | 1026.9 |